Location: Gries
(47.2000°N, 11.1500°E)
Time: 03:51:46
(UTC+00:00)

Daily predictions for brighter satellites

Satellite Brightness Start Highest point End
(mag) Time Altitude Azimuth Time Altitude Azimuth Time Altitude Azimuth
Cosmos 2082 Rocket 4.3 01:29:19 23° NNE 01:29:19 23° NNE 01:31:22 10° NNE
USA 267 4.4 01:26:16 10° NE 01:30:05 38° ENE 01:30:05 38° ENE
ADEOS II 4.4 01:28:44 10° NNE 01:30:09 19° NNE 01:30:09 19° NNE
CENTAUR R/B 4.4 01:41:24 10° NW 01:48:20 35° NNE 01:56:03 10° E
CZ-2D R/B 4.5 02:07:28 10° N 02:08:22 14° N 02:08:22 14° N
Lacrosse 4 Rocket 4.2 02:15:31 16° E 02:15:31 16° E 02:16:42 10° ESE
Cosmos 1745 Rocket 4.5 02:28:39 10° N 02:34:52 57° ENE 02:39:31 18° SSE
MSX 4.1 02:33:38 10° NNE 02:38:23 62° NNE 02:38:23 62° NNE
Lacrosse 5 2.7 02:42:08 46° NE 02:42:08 46° NE 02:46:44 10° E
Cosmos 2360 Rocket 2.5 02:42:29 10° NNW 02:48:08 64° ENE 02:53:45 10° SE
ALOS 4.4 02:44:34 10° NE 02:48:20 24° E 02:51:39 12° SE
USA 238 DEB 4.3 02:45:55 10° NW 02:53:02 60° NE 03:00:28 10° ESE
USA 238 4.3 02:46:01 10° NW 02:53:08 59° NE 03:00:33 10° ESE
ARIANE 5 R/B 3.4 02:50:05 10° N 02:53:20 39° N 02:53:20 39° N
CZ-2C R/B 2.8 02:54:53 10° NNE 02:59:35 56° E 02:59:46 55° ESE
Cosmos 1386 Rocket 4.4 03:00:07 10° N 03:06:34 89° WSW 03:12:09 14° S
CZ-4C R/B 4.4 03:04:43 10° SSE 03:08:02 18° ESE 03:11:40 10° ENE
Cosmos 2333 Rocket 3.2 03:04:12 10° NNW 03:09:45 46° NE 03:15:17 10° SE
H-2A R/B 3.8 03:06:11 10° SE 03:09:53 30° ENE 03:13:33 10° N
SeaSat 1 4.2 03:05:44 10° ESE 03:10:02 31° NE 03:14:21 10° NNW
Cosmos 2082 Rocket 3.8 03:11:10 21° NNW 03:11:10 21° NNW 03:14:46 10° N
Cosmos 1842 Rocket 4.3 03:13:03 45° N 03:13:03 45° N 03:16:05 10° N
Spot 4 Rocket 4.1 03:07:27 10° N 03:12:07 65° NW 03:12:07 65° NW
ADEOS II 4.1 03:09:30 10° NNW 03:11:05 16° NNW 03:11:05 16° NNW
USA 267 3.6 03:09:23 10° NE 03:15:42 53° NNW 03:17:26 42° WNW
Cosmos 1484 Rocket 4.5 03:14:15 10° NNE 03:17:33 29° E 03:19:29 19° SE
IDEFIX/ARIANE 42P 3.8 03:13:52 10° N 03:16:53 27° NNW 03:16:53 27° NNW
Cosmos 2251 Rocket 4.2 03:18:56 24° S 03:21:56 52° ESE 03:27:10 10° NNE
NOSS 3-2 (A) 4.0 03:15:38 10° NW 03:23:10 88° SW 03:31:43 10° SE
BREEZE-M DEB (TANK) 3.2 03:22:53 74° WSW 03:23:18 89° S 03:26:19 10° ENE
Cosmos 1553 Rocket 4.1 03:26:48 49° W 03:27:20 51° WNW 03:33:26 10° N
Geosat 4.5 03:24:40 10° NE 03:29:39 58° ESE 03:32:20 26° S
Cosmos 2219 Rocket 2.8 03:27:26 10° NNW 03:33:01 57° ENE 03:38:36 10° SE
COSMOS 2487 3.0 03:35:20 49° SE 03:35:35 51° ESE 03:38:55 10° NNE
PAYLOAD A 4.1 03:34:11 10° N 03:39:24 61° WNW 03:40:52 44° SW
CENTAUR R/B 3.2 03:32:04 10° NW 03:40:10 84° NE 03:49:05 10° SE
COSMOS 2428 3.4 03:35:01 10° NNW 03:40:40 56° ENE 03:46:17 10° SE
Cosmos 1606 2.6 03:42:18 54° S 03:43:08 87° E 03:47:03 10° N
Cosmos 2315 Rocket 4.0 03:38:14 10° S 03:44:26 85° E 03:50:41 10° N
PSLV R/B 3.5 03:41:54 10° N 03:46:16 71° WNW 03:47:30 45° SW
BREEZE-M DEB (TANK) 3.6 03:50:58 24° NNE 03:50:58 24° NNE 03:52:13 10° NE
USA 234 3.9 03:45:35 10° S 03:51:10 30° SW 03:51:15 30° SW
BREEZE M DEB (TANK) 2.0 03:51:34 57° NNW 03:51:54 63° NNE 03:57:02 10° E
Lacrosse 4 Rocket 1.7 03:51:57 48° WSW 03:51:57 48° WSW 03:56:08 10° S
METEOR-M 4.2 03:50:58 10° NNE 03:56:20 77° ESE 04:01:40 10° S
ATLAS 5 CENTAUR R/B 3.2 03:55:57 10° S 03:59:23 29° ESE 04:03:09 10° ENE
ISS -3.1 03:58:45 38° NNW 03:59:37 50° NNE 04:02:54 10° E
Cosmos 1805 Rocket 3.5 03:55:19 10° NNW 03:59:45 66° W 04:04:10 10° S
Cosmos 1743 Rocket 4.4 03:56:41 10° NNW 03:59:51 32° WNW 03:59:51 32° WNW
NOSS 3-4 (A) 4.3 03:55:54 10° S 04:01:24 45° ESE 04:07:16 10° NE
NOSS 3-4 (C) 4.4 03:55:59 10° S 04:01:30 45° ESE 04:07:21 10° NE
Cosmos 2322 3.6 03:58:02 10° NNW 04:03:44 72° WSW 04:09:21 10° SSE
NOSS 3-2 (C) 4.0 03:56:16 10° NW 04:03:49 82° SW 04:12:22 10° SSE
Cosmos 2221 3.7 04:04:42 25° NW 04:04:42 25° NW 04:07:43 10° NNW
Cosmos 1992 Rocket 4.3 03:59:19 10° NW 04:04:10 40° WSW 04:08:59 10° S
COSMO-SKYMED 1 3.3 04:01:06 10° SSE 04:05:19 55° ENE 04:09:35 10° N
Cosmos 2074 Rocket 4.4 04:00:33 10° N 04:06:45 64° ENE 04:12:53 10° SSE
Cosmos 1933 3.5 04:03:14 10° S 04:07:15 75° E 04:11:18 10° NNE
FENGYUN 3A 3.6 04:04:42 10° N 04:10:05 64° WNW 04:15:27 10° SSW
Cosmos 2344 3.6 04:06:15 23° WSW 04:11:05 63° NW 04:19:12 10° NE
BREEZE-M DEB (TANK) 3.8 04:08:38 25° WNW 04:11:18 83° NNE 04:27:05 10° ESE
Cosmos 1833 4.4 04:12:29 24° WSW 04:15:42 50° WNW 04:21:12 10° NNE
ATLAS 2AS CENTAUR R/B 4.0 04:08:52 10° S 04:16:18 46° ESE 04:23:41 10° NE
CBERS 1 LM4 rocket 4.3 04:13:24 10° N 04:18:11 67° WNW 04:22:52 10° SSW
Landsat 5 4.0 04:18:43 26° SW 04:19:44 29° W 04:23:11 10° NW
Meteor 1-20 Rocket 4.2 04:14:12 10° NNW 04:19:54 79° W 04:25:41 10° S
SJ-12 4.2 04:17:23 10° NNE 04:21:28 69° ESE 04:25:30 10° S
Sich 1 3.2 04:17:14 10° NNW 04:21:33 51° W 04:25:47 10° S
Cosmos 1666 Rocket 3.4 04:18:51 10° NNW 04:23:14 80° W 04:27:37 10° S
Lacrosse 5 2.1 04:21:22 18° WNW 04:24:53 48° SW 04:29:44 10° SSE
ALOS 2.6 04:21:30 10° N 04:25:56 43° WNW 04:30:10 11° SW
ADEOS 3.5 04:20:59 10° NNE 04:26:15 88° WNW 04:31:28 10° SSW
H-2A R/B 4.2 04:22:50 10° NNE 04:26:34 41° E 04:30:15 10° S
Meteor 1-31 Rocket 2.6 04:25:35 10° N 04:29:29 81° WNW 04:33:18 10° SSW
Cosmos 1140 Rocket 3.9 04:24:42 10° S 04:29:51 65° ESE 04:35:00 10° NNE
Cosmos 2184 Rocket 4.0 04:25:01 10° N 04:31:23 89° W 04:37:45 10° S
Cosmos 2360 Rocket 3.2 04:27:21 10° NW 04:31:39 22° W 04:35:55 10° SSW
CZ-4B R/B 3.9 04:28:46 10° NNE 04:33:13 56° E 04:37:39 10° S
ARIANE 5 R/B 4.5 04:32:05 10° NW 04:33:14 11° NW 04:33:41 11° WNW
Cosmos 192 4.3 04:28:51 10° NNW 04:33:47 67° WSW 04:38:41 10° S
CZ-4B R/B 1.0 04:31:57 10° SSE 04:35:03 84° W 04:38:08 10° NNW
CZ-2C R/B 3.7 04:33:57 10° NNW 04:37:24 20° WNW 04:39:09 17° W
Cosmos 2237 Rocket 2.9 04:32:05 10° NNW 04:37:43 59° ENE 04:43:17 10° SE
USA 276 2.0 04:36:12 22° WSW 04:38:09 87° NNW 04:41:21 10° ENE
CZ-2C R/B 4.3 04:33:24 10° SE 04:38:33 39° ENE 04:43:43 10° N
Cosmos 909 Rocket 4.0 04:32:02 10° SW 04:38:39 75° NW 04:44:58 10° NNE
USA 238 DEB 4.3 04:37:10 10° NW 04:43:51 40° WSW 04:50:47 10° S
USA 238 4.3 04:37:16 10° NW 04:43:57 40° WSW 04:50:53 10° S
H-2A R/B 2.8 04:42:11 10° SSW 04:45:50 28° W 04:49:28 10° NW
SeaSat 1 2.7 04:42:38 10° S 04:47:22 48° WSW 04:52:09 10° NW
Cosmos 1484 Rocket 3.9 04:48:53 10° NNW 04:51:49 22° WNW 04:54:44 10° WSW
NOSS 0 Rocket 3.9 04:46:05 10° NNW 04:52:17 77° WSW 04:58:27 10° SSE
ATLAS 3B R/B 3.4 04:46:10 10° NW 04:53:03 60° NE 05:00:13 10° SE
Cosmos 1437 Rocket 2.8 04:49:15 10° SSW 04:53:17 62° WNW 04:57:19 10° N
SKYMED 2 3.8 04:49:12 10° S 04:53:23 48° W 04:57:37 10° NNW
Cosmos 2333 Rocket 2.9 04:48:47 10° NW 04:53:52 33° WSW 04:58:56 10° SSW
Cosmos 1151 Rocket 3.1 04:50:35 10° SSW 04:54:48 54° WNW 04:59:02 10° N
CZ-4C R/B 2.1 04:50:36 10° SW 04:55:34 76° NW 05:01:37 10° NE
Cosmos 1633 Rocket 3.4 04:51:58 10° NNW 04:56:09 44° W 05:00:18 10° SSW
Cosmos 1782 2.8 04:52:50 10° SSW 04:56:43 58° WNW 05:00:39 10° N
Cosmos 2227 Rocket 3.8 04:52:02 10° S 04:57:15 39° ESE 05:02:29 10° NE
USA 267 4.2 04:52:05 10° ENE 04:57:59 38° N 05:03:53 10° WNW
SL-16 R/B 3.9 04:53:51 10° NNW 04:59:05 35° NE 05:04:17 10° ESE
MOS 1 Rocket 3.6 04:56:54 10° SSW 05:00:59 39° W 05:05:18 10° NNW
Cosmos 1242 Rocket 3.3 04:58:23 10° S 05:01:45 54° E 05:05:10 10° NNE
CZ-4B R/B 4.4 05:00:26 10° N 05:03:45 31° WNW 05:07:01 10° SW
Meteor 1-26 Rocket 4.4 05:01:21 10° SSW 05:06:58 56° WNW 05:12:47 10° N
SAR-Lupe-4 3.7 05:03:26 10° SSE 05:07:00 81° ENE 05:10:35 10° NNW
Cosmos 1666 3.5 05:04:06 10° N 05:07:52 57° ENE 05:11:38 10° SSE
H-2A R/B 4.4 04:57:59 10° WSW 05:08:47 23° SSW 05:12:52 10° SSE
COSMOS 2487 4.4 05:09:06 10° W 05:10:49 13° NW 05:12:31 10° NNW
Meteor PRIRODA 3.7 05:07:44 10° N 05:11:25 58° WNW 05:15:05 10° SSW
Cosmos 1689 Rocket 1.9 05:09:08 10° SSE 05:11:57 85° W 05:14:48 10° NNW
Cosmos 2341 Rocket 4.4 05:05:58 10° N 05:12:10 70° E 05:18:22 10° SSE
Cosmos 2297 Rocket 2.8 05:07:07 10° SSW 05:12:41 64° ESE 05:18:18 10° NNE
Nadezhda 1 Rocket 4.0 05:09:57 10° SSW 05:16:03 68° WNW 05:22:17 10° N
Cosmos 2219 Rocket 3.2 05:12:03 10° NW 05:16:36 25° WSW 05:21:07 10° SSW
